Weather observations for the past three days for
St. Inigoes, Webster Field, Naval Electronic Systems Engineering Activity
Imperial (Metric)
Date Time (edt) Wind (mph) Vis. (mi.) Weather Sky Cond. Temperature (ºF) Relative Humidity Wind Chill (°F) Heat Index (°F) Pressure Precipitation (in)
Air Dwpt 6 hour altimeter (in) sea level (mb) 1 hr 3 hr 6 hr
Max. Min.
06 17:53 SW 10 10.00 Fair CLR 71.1 61 71% 29.8 1009.1
06 16:53 SW 12 10.00 A Few Clouds FEW100 69.1 60.1 73% 29.79 1008.8
06 15:53 SW 16 G 28 10.00 Fair CLR 69.1 60.1 73% 29.8 1008.9
06 14:53 SW 13 10.00 Fair CLR 68 59 73% 29.82 1009.7
06 13:53 SW 12 G 26 10.00 Fair CLR 68 59 69.1 63 73% 29.84 1010.5 0.04
06 11:53 SW 12 7.00 Light Rain SCT044 BKN055 OVC090 64.9 57.9 78% 29.88 1011.6 0.01
06 10:53 SW 14 G 22 10.00 Overcast OVC090 68 55.9 65% 29.88 1011.8
06 09:53 SW 13 10.00 Partly Cloudy SCT110 68 55 63% 29.88 1011.7
06 08:53 S 12 G 22 10.00 Partly Cloudy SCT110 68 55 63% 29.88 1011.7
06 07:53 SW 14 G 23 10.00 Fair CLR 66 55 66.9 64 68% 29.89 1012.1
06 05:53 S 9 G 18 10.00 Fair CLR 64 53.1 68% 29.87 1011.4
06 04:53 S 12 G 17 10.00 NULL NULL 64 54 70% 29.88 1011.9
06 03:53 S 13 10.00 Fair CLR 64.9 55 70% 29.88 1011.8
06 01:53 S 13 G 24 10.00 Fair CLR 66.9 55.9 75.9 66.9 68% 29.89 1012.2
05 22:53 S 10 G 17 10.00 Fair CLR 69.1 54 59% 29.9 1012.5
05 21:53 S 10 10.00 Fair CLR 73 52 48% 29.9 1012.4
05 20:53 S 10 10.00 Fair CLR 73.9 50 43% 29.88 1011.7
05 18:53 SW 18 G 28 10.00 Fair CLR 79 48 34% 79 29.85 1010.8
05 17:53 SW 17 G 26 10.00 Fair CLR 79 48 34% 79 29.85 1010.6
05 16:53 S 14 G 25 10.00 Fair CLR 81 46.9 30% 80 29.85 1010.6
05 15:53 SW 14 G 25 10.00 Fair CLR 82.9 46.9 28% 81 29.87 1011.2
05 14:53 S 15 G 26 10.00 Fair CLR 82 50 33% 81 29.89 1012.1
05 13:53 S 15 10.00 Fair CLR 81 52 37% 80 29.9 1012.5
05 12:53 S 13 G 18 10.00 Fair CLR 79 51.1 38% 79 29.92 1013.1
05 10:53 S 9 10.00 Fair CLR 73 51.1 46% 29.94 1013.7
05 08:53 SW 14 10.00 Fair CLR 66.9 51.1 57% 29.94 1013.9
05 07:53 SW 12 10.00 Fair CLR 64.9 51.1 64.9 60.1 61% 29.94 1013.7
05 05:53 SW 8 10.00 Fair CLR 61 50 67% 29.92 1013.1
05 04:53 SW 8 10.00 Fair CLR 62.1 51.1 67% 29.91 1012.8
05 03:53 SW 8 10.00 Fair CLR 63 52 68% 29.91 1012.7
05 01:53 SW 13 G 24 10.00 Fair CLR 64.9 51.1 69.1 64 61% 29.89 1012.2
05 00:53 S 8 10.00 Fair CLR 64 50 60% 29.9 1012.3
04 23:53 S 9 10.00 Fair CLR 66 46.9 50% 29.89 1011.9
04 22:53 S 7 10.00 Fair CLR 66 48 52% 29.89 1011.9
04 21:53 S 6 10.00 Fair CLR 64.9 50 59% 29.88 1011.7
04 20:53 S 9 10.00 Fair CLR 66 51.1 59% 29.87 1011.4
04 18:53 SW 7 10.00 Fair CLR 73.9 41 31% 29.86 1010.9
04 16:53 S 9 10.00 Fair CLR 73.9 43 33% 29.86 1011.0
04 15:53 S 6 10.00 Fair CLR 75 39 27% 77 29.87 1011.4
04 14:53 S 8 10.00 Fair CLR 73 39 29% 29.9 1012.3
04 13:53 SW 8 10.00 Fair CLR 73 37.9 73 55.9 28% 29.92 1013.0
04 10:53 W 8 9.00 Fair CLR 66 37.9 36% 29.97 1014.9
04 09:53 W 10 10.00 Fair CLR 62.1 39.9 44% 29.97 1014.8
04 08:53 SW 10 10.00 Fair CLR 59 42.1 54% 29.99 1015.4
04 07:53 SW 7 10.00 NULL NULL 57 42.1 57 52 58% 30 1015.9
04 06:53 Calm 10.00 Partly Cloudy FEW095 SCT120 54 41 62% 30.01 1016.1
04 05:53 Vrbl 5 10.00 Partly Cloudy SCT110 53.1 42.1 66% 30.01 1016.1
04 04:53 S 5 10.00 Fair CLR 53.1 42.1 66% 30.01 1016.1
04 03:53 Calm 10.00 Fair CLR 54 42.1 64% 30.02 1016.4
04 02:53 S 6 10.00 Fair CLR 54 41 62% 30.03 1016.7
03 23:53 S 9 10.00 Fair CLR 55 41 59% 30.02 1016.4
03 22:53 S 6 10.00 Fair CLR 43 37 80% 40 30.01 1016.1
03 21:53 Calm 10.00 Fair CLR 46 35.1 66% 30 1015.9
03 20:53 Calm 10.00 NULL NULL 48 35.1 61% 30 1015.6
03 19:53 Calm 10.00 Fair CLR 55.9 30.9 62.1 55.9 39% 29.98 1015.0
03 18:53 NW 8 10.00 Fair CLR 60.1 28 30% 29.97 1014.8
Date Time (edt) Wind (mph) Vis. (mi.) Weather Sky Cond. Air Dwpt Max. Min. Relative Humidity Wind Chill (°F) Heat Index (°F) altimeter (in) sea level (mb) 1 hr 3 hr 6 hr
6 hour
Temperature (ºF) Pressure Precipitation (in)